Weather observations for the past three days for
Clarks Point Airport
Imperial (Metric)
Date Time (akdt) Wind (mph) Vis. (mi.) Weather Sky Cond. Temperature (ºF) Relative Humidity Wind Chill (°F) Heat Index (°F) Pressure Precipitation (in)
Air Dwpt 6 hour altimeter (in) sea level (mb) 1 hr 3 hr 6 hr
Max. Min.
15 03:56 SW 13 10.00 Overcast BKN009 OVC015 46 46 48 46 100% 41 29.72 1005.9
15 02:56 SW 15 9.00 Light Rain OVC007 46.9 46.9 100% 41 29.72 1005.8
15 01:56 SW 12 9.00 Light Rain OVC007 46.9 46.9 100% 42 29.72 1005.7
15 00:56 SW 10 10.00 Overcast OVC011 46.9 46 97% 43 29.71 1005.4
14 23:56 SW 15 10.00 Overcast OVC015 46.9 43 86% 41 29.69 1004.8
14 22:56 SW 13 10.00 Overcast OVC013 48 45 89% 43 29.67 1004.2
14 21:56 SW 10 10.00 Overcast OVC017 48 45 54 48 89% 44 29.66 1003.6
14 20:56 SW 14 10.00 Overcast BKN017 OVC021 48.9 44.1 83% 44 29.64 1003.1
14 19:56 SW 16 10.00 Overcast BKN015 OVC025 50 46 86% 45 29.63 1002.7
14 18:56 SW 18 10.00 Mostly Cloudy FEW015 BKN034 51.1 45 80% 29.62 1002.2
14 17:56 SW 18 G 26 10.00 Partly Cloudy SCT016 53.1 46.9 80% 29.6 1001.7
14 16:56 SW 20 G 23 10.00 Mostly Cloudy FEW016 BKN038 BKN045 54 46 75% 29.59 1001.3
14 15:56 SW 18 10.00 Partly Cloudy FEW020 SCT040 53.1 46 54 46.9 77% 29.57 1000.7 0.02
14 14:56 SW 18 10.00 Overcast FEW013 BKN019 OVC043 52 46.9 83% 29.55 1000.0
14 13:56 SW 13 8.00 Overcast FEW010 BKN032 OVC047 50 46.9 89% 46 29.54 999.5
14 12:56 SW 9 10.00 Overcast BKN015 BKN024 OVC050 51.1 46.9 86% 29.52 998.9 0.02
14 11:56 W 8 10.00 Light Rain BKN013 BKN020 OVC042 48.9 48.9 100% 46 29.5 998.2 0.01
14 10:56 SW 12 10.00 Light Rain BKN011 BKN020 OVC043 48 48 100% 44 29.48 997.8 0.01
14 09:56 SW 12 10.00 Light Rain BKN009 BKN013 OVC046 48 48 48 44.1 100% 44 29.48 997.7 0.03 0.18
14 08:56 SW 8 9.00 Light Rain SCT010 BKN038 OVC048 46.9 46.9 100% 44 29.48 997.6 0.08
14 07:56 SE 9 4.00 Rain Fog/Mist FEW007 BKN010 OVC033 45 45 100% 41 29.49 998.0 0.05
14 06:56 SE 5 4.00 Light Rain Fog/Mist BKN012 OVC022 45 45 100% 43 29.51 998.7 0.02 0.02
14 05:56 S 9 10.00 Light Rain BKN018 BKN024 OVC030 45 44.1 97% 41 29.53 999.2
14 04:56 SW 10 10.00 Overcast BKN018 BKN025 OVC036 45 39 80% 40 29.54 999.6
14 03:56 SW 13 10.00 Overcast BKN010 OVC016 45 44.1 46 44.1 97% 39 29.55 999.9
14 02:56 SW 12 10.00 Overcast SCT011 BKN017 OVC025 44.1 44.1 100% 39 29.55 999.9
14 01:56 SW 13 10.00 Overcast SCT011 BKN018 OVC039 45 43 93% 39 29.55 999.9
14 00:56 SW 15 G 25 8.00 Overcast BKN018 OVC033 45 42.1 90% 39 29.54 999.7
13 23:56 SW 17 G 22 10.00 Overcast BKN016 OVC035 46 41 83% 40 29.53 999.4
13 22:56 SW 10 10.00 Overcast FEW015 OVC031 45 41 86% 40 29.53 999.2
13 21:56 SW 18 10.00 Overcast FEW015 OVC031 45 42.1 48.9 45 90% 38 29.52 999.0 0.01
13 20:56 W 14 G 24 10.00 Mostly Cloudy FEW019 BKN027 46 39.9 79% 40 29.52 999.0
13 19:56 SW 16 G 24 10.00 Mostly Cloudy SCT020 BKN028 BKN034 48 41 77% 42 29.52 998.8
13 18:56 SW 18 G 28 10.00 Overcast BKN021 BKN028 OVC036 48 42.1 80% 42 29.51 998.7 0.01
13 17:56 W 12 G 23 10.00 Overcast BKN019 BKN026 OVC038 48 43 83% 44 29.51 998.7
13 16:56 W 14 G 22 10.00 Overcast OVC010 46 46 100% 40 29.52 998.8 0.01
13 15:56 SW 12 4.00 Light Rain Fog/Mist BKN010 OVC019 46.9 46.9 48 46.9 100% 42 29.52 998.9 0.01 0.01
13 14:56 SW 12 G 16 10.00 Light Rain BKN008 BKN011 OVC017 48 48 100% 44 29.52 999.0
13 13:56 SW 8 10.00 Light Rain BKN008 BKN012 OVC044 48 48 100% 45 29.52 999.1
13 12:56 W 6 10.00 Light Rain OVC014 48 48 100% 46 29.53 999.4
13 11:56 SW 9 10.00 Light Rain OVC010 46.9 46.9 100% 43 29.54 999.5
13 10:56 S 6 10.00 Overcast OVC008 46.9 46.9 100% 45 29.55 1000.0
13 09:56 SW 3 10.00 Overcast OVC008 46.9 46.9 48 46 100% 29.56 1000.3
13 08:56 W 6 10.00 Overcast OVC010 48 48 100% 46 29.56 1000.5
13 07:56 SE 6 10.00 Overcast BKN010 OVC015 46.4 0 0% 44 29.58 1001.1
13 06:56 SE 3 10.00 Overcast OVC011 46.4 0 0% 29.6 1001.7
13 05:56 E 5 10.00 Overcast OVC011 46.4 0 0% 45 29.6 1001.7
13 04:56 Calm 10.00 Overcast OVC011 46.9 46.9 100% 29.61 1002.0
13 03:56 Calm 10.00 Overcast OVC011 46.9 46.9 46.9 46 100% 29.62 1002.4
13 02:56 S 3 10.00 Overcast OVC011 46.9 46.9 100% 29.63 1002.7
13 01:56 SW 6 10.00 Overcast OVC009 46.9 46.9 100% 45 29.64 1002.9
13 00:56 SW 5 10.00 Overcast OVC007 46.9 46.9 100% 45 29.63 1002.8
12 23:56 SW 12 10.00 Overcast OVC005 46.9 46.9 100% 42 29.63 1002.8
12 22:56 SW 8 10.00 Overcast OVC007 46.9 46.9 100% 44 29.63 1002.6
12 21:56 S 10 10.00 Overcast OVC007 46.9 46.9 53.1 46.9 100% 43 29.61 1002.2 0.02
12 20:56 SW 13 9.00 Overcast OVC009 48.9 48.9 100% 44 29.6 1001.8
12 19:56 SW 16 10.00 Overcast OVC011 50 50 100% 45 29.58 1001.2
12 18:56 SW 17 10.00 Overcast OVC011 50 50 100% 45 29.57 1000.8 0.02
12 17:56 SW 14 1.75 Light Rain BKN006 OVC009 51.8 0 0% 29.56 1000.4 0.01
12 16:56 S 20 2.50 Light Rain OVC006 51.8 0 0% 29.55 1000.1 0.01
12 15:56 S 20 3.00 Light Rain OVC006 53.6 0 53.1 50 0% 29.54 999.7 0.12
12 14:56 S 22 G 29 2.50 Light Rain and Breezy OVC006 53.6 0 0% 29.53 999.3 0.01
12 13:56 S 26 G 35 4.00 Light Rain and Windy BKN006 OVC017 51.8 0 0% 29.52 999.0 0.02
12 12:56 SE 30 3.00 Light Rain and Windy OVC008 51.8 0 0% 29.53 999.2 0.05 0.09
12 11:56 SE 24 G 31 3.00 Light Rain and Breezy OVC011 51.8 0 0% 29.54 999.6 0.03
12 10:56 SE 23 G 30 2.50 Light Rain and Breezy OVC009 50 0 0% 44 29.54 999.7 0.01
12 09:56 SE 23 G 31 3.00 Light Rain and Breezy BKN007 OVC011 50 0 51.1 50 0% 44 29.55 1000.1 0.01 0.11
12 08:56 SE 24 G 31 4.00 Light Rain and Breezy OVC007 50 0 0% 43 29.56 1000.4 0.02
12 07:56 SE 21 G 30 4.00 Light Rain and Breezy BKN007 OVC011 50 0 0% 44 29.59 1001.3 0.01
12 06:56 SE 22 G 31 8.00 Light Rain and Breezy OVC009 50 0 0% 44 29.6 1001.8 0.02 0.07
12 05:56 SE 18 G 30 10.00 Light Rain OVC009 50 0 0% 44 29.62 1002.5 0.02
12 04:56 SE 21 G 24 10.00 Light Rain and Breezy BKN009 OVC013 50 0 0% 44 29.64 1002.9 0.03
Date Time (akdt) Wind (mph) Vis. (mi.) Weather Sky Cond. Air Dwpt Max. Min. Relative Humidity Wind Chill (°F) Heat Index (°F) altimeter (in) sea level (mb) 1 hr 3 hr 6 hr
6 hour
Temperature (ºF) Pressure Precipitation (in)